| time (UTC) | temp F | wind direction | speed MPH | gust MPH | rain 1hr in | rain 24hr in | rain mn in | humidity % | barometer mb |
| 20260505204115 | 59 | 198 | 4.0 | 11.0 | 0.01 | 0.00 | 1.11 | 95 | 1004.9 |
| 20260505203615 | 59 | 197 | 4.0 | 11.0 | 0.01 | 0.00 | 1.11 | 95 | 1005.0 |
| 20260505203115 | 59 | 195 | 4.0 | 11.0 | 0.01 | 0.00 | 1.11 | 94 | 1005.0 |
| 20260505202614 | 59 | 176 | 4.0 | 11.0 | 0.02 | 0.00 | 1.11 | 94 | 1004.9 |
| 20260505202114 | 59 | 200 | 4.0 | 11.0 | 0.03 | 0.00 | 1.11 | 94 | 1004.8 |
| 20260505201614 | 59 | 181 | 4.0 | 11.0 | 0.03 | 0.00 | 1.11 | 94 | 1005.1 |
| 20260505201114 | 59 | 188 | 4.0 | 11.0 | 0.04 | 0.00 | 1.11 | 94 | 1005.0 |
| 20260505200614 | 59 | 166 | 4.0 | 11.0 | 0.05 | 0.00 | 1.11 | 94 | 1005.0 |
| 20260505200113 | 60 | 193 | 4.0 | 11.0 | 0.07 | 0.00 | 1.11 | 94 | 1005.1 |
| 20260505195612 | 60 | 189 | 4.0 | 11.0 | 0.08 | 0.00 | 1.11 | 94 | 1005.1 |
| 20260505195112 | 60 | 181 | 3.0 | 11.0 | 0.08 | 0.00 | 1.11 | 94 | 1005.0 |
| 20260505194611 | 60 | 159 | 4.0 | 11.0 | 0.08 | 0.00 | 1.11 | 94 | 1005.0 |
| 20260505193556 | 59 | 206 | 4.0 | 11.0 | 0.07 | 0.00 | 1.10 | 94 | 1005.0 |
| 20260505193056 | 59 | 175 | 3.0 | 11.0 | 0.09 | 0.00 | 1.10 | 94 | 1005.2 |
| 20260505192556 | 59 | 183 | 2.0 | 11.0 | 0.10 | 0.00 | 1.09 | 93 | 1005.2 |
| 20260505192056 | 59 | 166 | 2.0 | 11.0 | 0.10 | 0.00 | 1.07 | 94 | 1005.2 |
| 20260505191555 | 59 | 138 | 1.0 | 11.0 | 0.11 | 0.00 | 1.07 | 93 | 1005.2 |
| 20260505191054 | 60 | 179 | 1.0 | 11.0 | 0.12 | 0.00 | 1.07 | 93 | 1005.0 |
| 20260505190554 | 60 | 188 | 0.0 | 11.0 | 0.13 | 0.00 | 1.06 | 93 | 1005.3 |
| 20260505190054 | 60 | 188 | 1.0 | 11.0 | 0.13 | 0.00 | 1.04 | 93 | 1005.4 |
| 20260505185554 | 60 | 171 | 0.0 | 11.0 | 0.14 | 0.00 | 1.03 | 93 | 1005.6 |
| 20260505185053 | 60 | 178 | 2.0 | 11.0 | 0.14 | 0.00 | 1.02 | 92 | 1005.6 |
| 20260505184553 | 60 | 192 | 2.0 | 11.0 | 0.15 | 0.00 | 1.02 | 92 | 1005.5 |
| 20260505184052 | 60 | 216 | 0.0 | 11.0 | 0.16 | 0.00 | 1.02 | 93 | 1005.4 |
| 20260505182522 | 60 | 242 | 1.0 | 11.0 | 0.13 | 0.00 | 1.00 | 92 | 1005.9 |
| 20260505182022 | 60 | 241 | 0.0 | 11.0 | 0.12 | 0.00 | 0.98 | 92 | 1005.6 |
| 20260505181521 | 60 | 241 | 2.0 | 11.0 | 0.10 | 0.00 | 0.96 | 91 | 1005.9 |
| 20260505175949 | 60 | 236 | 2.0 | 11.0 | 0.04 | 0.00 | 0.90 | 90 | 1006.4 |
| 20260505175449 | 60 | 243 | 2.0 | 11.0 | 0.02 | 0.00 | 0.88 | 89 | 1006.2 |
| 20260505174948 | 61 | 256 | 0.0 | 11.0 | 0.01 | 0.00 | 0.87 | 89 | 1005.9 |
| 20260505173932 | 61 | 240 | 3.0 | 11.0 | 0.00 | 0.00 | 0.86 | 88 | 1006.1 |
| 20260505173432 | 61 | 243 | 0.0 | 11.0 | 0.00 | 0.00 | 0.86 | 88 | 1006.1 |
| 20260505172931 | 61 | 240 | 2.0 | 11.0 | 0.00 | 0.00 | 0.86 | 88 | 1006.2 |
| 20260505172431 | 62 | 262 | 1.0 | 11.0 | 0.00 | 0.00 | 0.86 | 87 | 1006.3 |
| 20260505171930 | 62 | 249 | 2.0 | 11.0 | 0.00 | 0.00 | 0.86 | 87 | 1006.4 |
| 20260505171429 | 62 | 236 | 1.0 | 11.0 | 0.00 | 0.00 | 0.86 | 87 | 1006.0 |
| 20260505170928 | 62 | 254 | 1.0 | 11.0 | 0.00 | 0.00 | 0.86 | 86 | 1005.8 |
| 20260505170427 | 62 | 267 | 2.0 | 11.0 | 0.00 | 0.00 | 0.86 | 85 | 1005.7 |
| 20260505165927 | 63 | 247 | 3.0 | 11.0 | 0.00 | 0.00 | 0.86 | 85 | 1006.1 |
| 20260505165426 | 63 | 297 | 1.0 | 11.0 | 0.00 | 0.00 | 0.86 | 84 | 1006.2 |
| 20260505164925 | 63 | 285 | 2.0 | 11.0 | 0.00 | 0.00 | 0.86 | 83 | 1006.6 |
| 20260505164424 | 63 | 273 | 4.0 | 11.0 | 0.00 | 0.00 | 0.86 | 83 | 1006.2 |
| 20260505163408 | 64 | 267 | 2.0 | 11.0 | 0.00 | 0.00 | 0.86 | 82 | 1006.3 |
| 20260505162908 | 64 | 287 | 1.0 | 11.0 | 0.00 | 0.00 | 0.86 | 81 | 1006.3 |
| 20260505161852 | 64 | 243 | 2.0 | 11.0 | 0.00 | 0.00 | 0.86 | 81 | 1006.4 |
| 20260505161352 | 64 | 219 | 1.0 | 11.0 | 0.00 | 0.00 | 0.86 | 81 | 1005.7 |
| 20260505160852 | 64 | 241 | 2.0 | 11.0 | 0.00 | 0.00 | 0.86 | 81 | 1006.1 |
| 20260505160351 | 64 | 237 | 3.0 | 11.0 | 0.00 | 0.00 | 0.86 | 81 | 1006.3 |
| 20260505152247 | 63 | 232 | 3.0 | 11.0 | 0.00 | 0.00 | 0.86 | 84 | 1006.5 |
| 20260505151747 | 63 | 265 | 3.0 | 11.0 | 0.00 | 0.00 | 0.86 | 84 | 1006.3 |
| 20260505151246 | 63 | 248 | 2.0 | 11.0 | 0.00 | 0.00 | 0.86 | 84 | 1006.3 |
| 20260505150746 | 63 | 264 | 3.0 | 11.0 | 0.00 | 0.00 | 0.86 | 85 | 1006.4 |
| 20260505150246 | 62 | 269 | 3.0 | 11.0 | 0.00 | 0.00 | 0.86 | 85 | 1006.1 |
| 20260505140237 | 61 | 217 | 3.0 | 11.0 | 0.00 | 0.00 | 0.86 | 88 | 1005.8 |
| 20260505130159 | 59 | 177 | 3.0 | 11.0 | 0.00 | 0.00 | 0.86 | 92 | 1005.5 |
| 20260505124643 | 59 | 195 | 3.0 | 11.0 | 0.00 | 0.00 | 0.86 | 93 | 1005.8 |
| 20260505124142 | 58 | 184 | 4.0 | 11.0 | 0.00 | 0.00 | 0.86 | 92 | 1005.5 |
| 20260505123127 | 58 | 174 | 3.0 | 13.0 | 0.00 | 0.00 | 0.86 | 92 | 1005.4 |
| 20260505122112 | 58 | 191 | 4.0 | 13.0 | 0.00 | 0.00 | 0.86 | 92 | 1005.4 |
| 20260505121612 | 58 | 180 | 5.0 | 13.0 | 0.00 | 0.00 | 0.86 | 92 | 1005.4 |
| 20260505121111 | 57 | 188 | 6.0 | 13.0 | 0.00 | 0.00 | 0.86 | 92 | 1005.5 |
| 20260505120055 | 57 | 182 | 4.0 | 12.0 | 0.00 | 0.00 | 0.86 | 92 | 1005.6 |
| 20260505115555 | 57 | 184 | 3.0 | 12.0 | 0.00 | 0.00 | 0.86 | 92 | 1005.6 |
| 20260505115055 | 57 | 184 | 3.0 | 12.0 | 0.00 | 0.00 | 0.86 | 92 | 1005.1 |
| 20260505114555 | 57 | 181 | 4.0 | 12.0 | 0.00 | 0.00 | 0.86 | 92 | 1005.4 |
| 20260505114054 | 57 | 174 | 4.0 | 12.0 | 0.00 | 0.00 | 0.86 | 93 | 1005.2 |
| 20260505113554 | 57 | 192 | 4.0 | 12.0 | 0.00 | 0.00 | 0.86 | 93 | 1005.1 |
| 20260505112538 | 57 | 169 | 3.0 | 12.0 | 0.00 | 0.00 | 0.86 | 94 | 1005.0 |
| 20260505112039 | 57 | 175 | 4.0 | 12.0 | 0.00 | 0.00 | 0.86 | 94 | 1005.2 |
| 20260505110508 | 56 | 181 | 5.0 | 12.0 | 0.00 | 0.00 | 0.86 | 94 | 1005.3 |
| 20260505101436 | 56 | 188 | 3.0 | 12.0 | 0.03 | 0.00 | 0.86 | 95 | 1004.5 |
| 20260505100936 | 56 | 176 | 4.0 | 12.0 | 0.04 | 0.00 | 0.86 | 95 | 1004.3 |
| 20260505100436 | 56 | 171 | 5.0 | 12.0 | 0.04 | 0.00 | 0.86 | 95 | 1004.2 |
| 20260505095936 | 56 | 178 | 4.0 | 12.0 | 0.04 | 0.00 | 0.86 | 95 | 1004.4 |
| 20260505094406 | 56 | 186 | 5.0 | 18.0 | 0.06 | 0.00 | 0.86 | 95 | 1004.0 |
| 20260505093906 | 56 | 178 | 8.0 | 18.0 | 0.06 | 0.00 | 0.86 | 95 | 1003.7 |
| 20260505092850 | 56 | 168 | 7.0 | 15.0 | 0.07 | 0.00 | 0.85 | 95 | 1003.9 |
| 20260505091833 | 56 | 159 | 5.0 | 12.0 | 0.10 | 0.00 | 0.84 | 95 | 1004.8 |
| 20260505091333 | 56 | 174 | 6.0 | 12.0 | 0.10 | 0.00 | 0.82 | 95 | 1005.0 |
| 20260505090833 | 56 | 178 | 5.0 | 11.0 | 0.10 | 0.00 | 0.82 | 95 | 1003.5 |
| 20260505090333 | 56 | 171 | 4.0 | 11.0 | 0.10 | 0.00 | 0.81 | 95 | 1003.0 |
| 20260505085833 | 56 | 172 | 4.0 | 13.0 | 0.11 | 0.00 | 0.81 | 94 | 1003.0 |
| 20260505085333 | 56 | 161 | 3.0 | 13.0 | 0.11 | 0.00 | 0.80 | 94 | 1003.1 |
| 20260505084833 | 56 | 182 | 3.0 | 13.0 | 0.11 | 0.00 | 0.80 | 94 | 1003.7 |
| 20260505084333 | 56 | 167 | 3.0 | 13.0 | 0.11 | 0.00 | 0.79 | 94 | 1003.6 |
| 20260505083833 | 56 | 165 | 2.0 | 13.0 | 0.14 | 0.00 | 0.79 | 94 | 1004.0 |
| 20260505082817 | 56 | 225 | 0.0 | 13.0 | 0.21 | 0.00 | 0.78 | 94 | 1005.0 |
| 20260505082317 | 56 | 226 | 0.0 | 13.0 | 0.21 | 0.00 | 0.77 | 94 | 1005.2 |
| 20260505081301 | 56 | 255 | 1.0 | 13.0 | 0.20 | 0.00 | 0.72 | 94 | 1005.0 |
| 20260505080802 | 56 | 256 | 0.0 | 13.0 | 0.21 | 0.00 | 0.72 | 93 | 1005.1 |
| 20260505075744 | 56 | 256 | 1.0 | 13.0 | 0.27 | 0.00 | 0.70 | 93 | 1004.9 |
| 20260505074730 | 57 | 24 | 0.0 | 13.0 | 0.28 | 0.00 | 0.69 | 93 | 1004.5 |
| 20260505074229 | 57 | 310 | 1.0 | 13.0 | 0.29 | 0.00 | 0.68 | 93 | 1004.7 |
| 20260505073729 | 57 | 312 | 1.0 | 13.0 | 0.27 | 0.00 | 0.63 | 93 | 1005.1 |
| 20260505071640 | 57 | 349 | 1.0 | 13.0 | 0.28 | 0.00 | 0.54 | 92 | 1004.2 |
| 20260505070626 | 58 | 55 | 1.0 | 13.0 | 0.32 | 0.00 | 0.51 | 91 | 1003.9 |
| 20260505070125 | 58 | 37 | 0.0 | 13.0 | 0.28 | 0.00 | 0.44 | 91 | 1004.9 |
| 20260505065626 | 58 | 34 | 1.0 | 13.0 | 0.28 | 0.00 | 0.43 | 91 | 1003.9 |
| 20260505065125 | 58 | 23 | 0.0 | 13.0 | 0.28 | 0.00 | 0.43 | 90 | 1004.0 |
| 20260505064625 | 58 | 195 | 1.0 | 13.0 | 0.28 | 0.00 | 0.40 | 90 | 1004.5 |
| 20260505064125 | 59 | 20 | 2.0 | 13.0 | 0.35 | 0.00 | 0.38 | 89 | 1005.1 |
| 20260505063625 | 59 | 348 | 2.0 | 13.0 | 0.34 | 0.00 | 0.36 | 89 | 1004.9 |
| 20260505063124 | 59 | 2 | 1.0 | 13.0 | 0.35 | 0.00 | 0.35 | 88 | 1005.5 |
| 20260505062625 | 59 | 313 | 3.0 | 13.0 | 0.31 | 0.00 | 0.31 | 88 | 1005.9 |
| 20260505062125 | 60 | 303 | 1.0 | 13.0 | 0.28 | 0.00 | 0.28 | 87 | 1005.3 |
| 20260505061624 | 60 | 270 | 3.0 | 13.0 | 0.27 | 0.00 | 0.27 | 86 | 1006.3 |
| 20260505061125 | 61 | 314 | 5.0 | 11.0 | 0.22 | 0.00 | 0.22 | 84 | 1006.5 |
| 20260505060623 | 61 | 254 | 3.0 | 11.0 | 0.18 | 0.00 | 0.18 | 83 | 1006.1 |
| 20260505060122 | 61 | 235 | 4.0 | 11.0 | 0.15 | 0.00 | 0.15 | 82 | 1005.1 |
| 20260505055622 | 62 | 216 | 1.0 | 11.0 | 0.15 | 0.00 | 0.15 | 82 | 1004.8 |
| 20260505055121 | 62 | 233 | 3.0 | 14.0 | 0.14 | 0.00 | 0.14 | 80 | 1005.1 |
| 20260505054622 | 63 | 253 | 7.0 | 22.0 | 0.12 | 0.00 | 0.12 | 77 | 1005.2 |
| 20260505054121 | 64 | 243 | 9.0 | 22.0 | 0.04 | 0.00 | 0.04 | 73 | 1005.3 |
| 20260505053621 | 66 | 242 | 9.0 | 21.0 | 0.03 | 0.00 | 0.03 | 69 | 1004.9 |
| 20260505053121 | 66 | 232 | 8.0 | 14.0 | 0.00 | 0.00 | 0.00 | 64 | 1004.4 |
| 20260505052621 | 66 | 216 | 7.0 | 12.0 | 0.00 | 0.00 | 0.00 | 62 | 1003.9 |
| 20260505051605 | 66 | 202 | 6.0 | 14.0 | 0.00 | 0.00 | 0.00 | 62 | 1002.8 |
| 20260505051105 | 66 | 198 | 5.0 | 12.0 | 0.00 | 0.00 | 0.00 | 62 | 1002.8 |
| 20260505050605 | 66 | 192 | 5.0 | 12.0 | 0.00 | 0.00 | 0.00 | 62 | 1002.8 |
| 20260505050104 | 66 | 194 | 5.0 | 12.0 | 0.00 | 0.00 | 0.00 | 62 | 1002.5 |
| 20260505041033 | 67 | 183 | 4.0 | 13.0 | 0.00 | 0.00 | 0.00 | 61 | 1002.1 |
| 20260505035501 | 67 | 180 | 5.0 | 12.0 | 0.00 | 0.00 | 0.00 | 61 | 1002.4 |
| 20260505035001 | 67 | 177 | 4.0 | 12.0 | 0.00 | 0.00 | 0.00 | 61 | 1002.2 |
| 20260505034501 | 67 | 190 | 4.0 | 12.0 | 0.00 | 0.00 | 0.00 | 61 | 1002.5 |
| 20260505032929 | 68 | 182 | 4.0 | 12.0 | 0.00 | 0.00 | 0.00 | 61 | 1002.6 |
| 20260505031914 | 68 | 180 | 4.0 | 12.0 | 0.00 | 0.00 | 0.00 | 61 | 1002.6 |
| 20260505031414 | 68 | 189 | 3.0 | 12.0 | 0.00 | 0.00 | 0.00 | 61 | 1002.7 |
| 20260505030914 | 68 | 193 | 3.0 | 12.0 | 0.00 | 0.00 | 0.00 | 61 | 1002.8 |
| 20260505030413 | 68 | 191 | 4.0 | 12.0 | 0.00 | 0.00 | 0.00 | 61 | 1002.7 |
| 20260505025912 | 68 | 185 | 3.0 | 12.0 | 0.00 | 0.00 | 0.00 | 61 | 1002.7 |
| 20260505025412 | 68 | 195 | 4.0 | 12.0 | 0.00 | 0.00 | 0.00 | 60 | 1002.6 |
| 20260505024912 | 68 | 192 | 3.0 | 12.0 | 0.00 | 0.00 | 0.00 | 60 | 1002.6 |
| 20260505024412 | 69 | 197 | 3.0 | 12.0 | 0.00 | 0.00 | 0.00 | 59 | 1002.6 |
| 20260505023912 | 69 | 188 | 3.0 | 12.0 | 0.00 | 0.00 | 0.00 | 58 | 1002.6 |
| 20260505023412 | 69 | 184 | 3.0 | 12.0 | 0.00 | 0.00 | 0.00 | 58 | 1002.7 |
| 20260505022912 | 69 | 201 | 3.0 | 12.0 | 0.00 | 0.00 | 0.00 | 58 | 1002.9 |
| 20260505022412 | 69 | 197 | 3.0 | 12.0 | 0.00 | 0.00 | 0.00 | 58 | 1002.7 |
| 20260505021912 | 69 | 198 | 5.0 | 12.0 | 0.00 | 0.00 | 0.00 | 58 | 1002.7 |
| 20260505021412 | 69 | 198 | 3.0 | 12.0 | 0.00 | 0.00 | 0.00 | 57 | 1002.7 |
| 20260505020912 | 69 | 192 | 3.0 | 12.0 | 0.00 | 0.00 | 0.00 | 57 | 1002.5 |
| 20260505020412 | 69 | 186 | 3.0 | 12.0 | 0.00 | 0.00 | 0.00 | 57 | 1002.3 |
| 20260505015912 | 69 | 186 | 3.0 | 12.0 | 0.00 | 0.00 | 0.00 | 57 | 1002.4 |
| 20260505015412 | 69 | 189 | 4.0 | 12.0 | 0.00 | 0.00 | 0.00 | 57 | 1002.5 |
| 20260505014912 | 69 | 192 | 3.0 | 12.0 | 0.00 | 0.00 | 0.00 | 57 | 1002.2 |
| 20260505014412 | 69 | 194 | 4.0 | 12.0 | 0.00 | 0.00 | 0.00 | 57 | 1002.4 |
| 20260505013911 | 69 | 198 | 3.0 | 12.0 | 0.00 | 0.00 | 0.00 | 56 | 1002.2 |
| 20260505013411 | 69 | 188 | 3.0 | 12.0 | 0.00 | 0.00 | 0.00 | 56 | 1002.1 |
| 20260505012911 | 70 | 193 | 3.0 | 12.0 | 0.00 | 0.00 | 0.00 | 55 | 1002.1 |
| 20260505012411 | 70 | 200 | 3.0 | 12.0 | 0.00 | 0.00 | 0.00 | 55 | 1001.8 |
| 20260505011911 | 70 | 190 | 3.0 | 12.0 | 0.00 | 0.00 | 0.00 | 55 | 1001.8 |
| 20260505011411 | 70 | 197 | 3.0 | 12.0 | 0.00 | 0.00 | 0.00 | 54 | 1001.4 |
| 20260505010911 | 71 | 195 | 4.0 | 12.0 | 0.00 | 0.00 | 0.00 | 54 | 1001.7 |
| 20260505010411 | 71 | 184 | 4.0 | 12.0 | 0.00 | 0.00 | 0.00 | 54 | 1001.5 |
| 20260505005911 | 71 | 191 | 3.0 | 12.0 | 0.00 | 0.00 | 0.00 | 54 | 1001.4 |
| 20260505005411 | 71 | 188 | 5.0 | 12.0 | 0.00 | 0.00 | 0.00 | 54 | 1001.3 |
| 20260505004910 | 71 | 186 | 3.0 | 12.0 | 0.00 | 0.00 | 0.00 | 53 | 1001.4 |
| 20260505004410 | 72 | 198 | 5.0 | 12.0 | 0.00 | 0.00 | 0.00 | 53 | 1001.2 |
| 20260505003910 | 72 | 197 | 6.0 | 12.0 | 0.00 | 0.00 | 0.00 | 53 | 1001.3 |
| 20260505003410 | 72 | 187 | 6.0 | 12.0 | 0.00 | 0.00 | 0.00 | 53 | 1001.1 |
| 20260505002909 | 72 | 185 | 4.0 | 12.0 | 0.00 | 0.00 | 0.00 | 52 | 1001.4 |
| 20260505002408 | 73 | 196 | 4.0 | 14.0 | 0.00 | 0.00 | 0.00 | 52 | 1001.3 |
| 20260505001352 | 73 | 200 | 6.0 | 15.0 | 0.00 | 0.00 | 0.00 | 51 | 1001.1 |
| 20260505000852 | 73 | 198 | 7.0 | 15.0 | 0.00 | 0.00 | 0.00 | 50 | 1001.3 |
| 20260505000351 | 74 | 205 | 7.0 | 14.0 | 0.00 | 0.00 | 0.00 | 50 | 1001.2 |
| 20260504235851 | 74 | 200 | 6.0 | 21.0 | 0.00 | 0.00 | 0.00 | 50 | 1001.2 |
| 20260504235350 | 74 | 193 | 5.0 | 21.0 | 0.00 | 0.00 | 0.00 | 49 | 993.0 |
| 20260504234850 | 75 | 202 | 8.0 | 15.0 | 0.00 | 0.00 | 0.00 | 49 | 992.0 |
| 20260504234350 | 75 | 197 | 8.0 | 18.0 | 0.00 | 0.00 | 0.00 | 48 | 991.3 |
| 20260504233849 | 75 | 214 | 7.0 | 20.0 | 0.00 | 0.00 | 0.00 | 48 | 988.9 |
| 20260504233348 | 75 | 194 | 8.0 | 20.0 | 0.00 | 0.00 | 0.00 | 47 | 987.9 |
| 20260504232332 | 75 | 197 | 8.0 | 18.0 | 0.00 | 0.00 | 0.00 | 46 | 992.9 |
| 20260504231831 | 76 | 205 | 6.0 | 16.0 | 0.00 | 0.00 | 0.00 | 46 | 985.3 |
| 20260504231330 | 76 | 195 | 9.0 | 16.0 | 0.00 | 0.00 | 0.00 | 45 | 992.8 |
| 20260504230829 | 76 | 207 | 7.0 | 14.0 | 0.00 | 0.00 | 0.00 | 45 | 994.5 |
| 20260504230329 | 76 | 219 | 7.0 | 16.0 | 0.00 | 0.00 | 0.00 | 44 | 997.6 |
| 20260504225312 | 76 | 208 | 12.0 | 22.0 | 0.00 | 0.00 | 0.00 | 43 | 999.2 |
| 20260504224811 | 76 | 206 | 10.0 | 22.0 | 0.00 | 0.00 | 0.00 | 44 | 999.4 |
| 20260504224311 | 76 | 213 | 9.0 | 21.0 | 0.00 | 0.00 | 0.00 | 45 | 1001.4 |
| 20260504223811 | 75 | 204 | 12.0 | 15.0 | 0.00 | 0.00 | 0.00 | 47 | 1000.3 |
| 20260504223310 | 75 | 197 | 7.0 | 14.0 | 0.00 | 0.00 | 0.00 | 52 | 1000.0 |
| 20260504222810 | 75 | 187 | 6.0 | 13.0 | 0.00 | 0.00 | 0.00 | 52 | 1002.1 |
| 20260504222309 | 74 | 183 | 6.0 | 13.0 | 0.00 | 0.00 | 0.00 | 53 | 1000.6 |
| 20260504221809 | 74 | 197 | 5.0 | 15.0 | 0.00 | 0.00 | 0.00 | 54 | 1001.1 |
| 20260504220754 | 74 | 187 | 7.0 | 14.0 | 0.00 | 0.00 | 0.00 | 54 | 1002.5 |
| 20260504220254 | 74 | 193 | 5.0 | 11.0 | 0.00 | 0.00 | 0.00 | 55 | 1003.1 |
| 20260504215753 | 74 | 186 | 6.0 | 11.0 | 0.00 | 0.00 | 0.00 | 55 | 1002.9 |
| 20260504215253 | 74 | 184 | 6.0 | 11.0 | 0.00 | 0.00 | 0.00 | 54 | 1002.7 |
| 20260504214752 | 74 | 175 | 4.0 | 11.0 | 0.00 | 0.00 | 0.00 | 54 | 1003.1 |
| 20260504214252 | 74 | 182 | 6.0 | 11.0 | 0.00 | 0.00 | 0.00 | 53 | 1002.9 |
| 20260504213236 | 74 | 200 | 5.0 | 11.0 | 0.00 | 0.00 | 0.00 | 55 | 1003.1 |
| 20260504212736 | 73 | 202 | 5.0 | 11.0 | 0.00 | 0.00 | 0.00 | 57 | 1000.5 |
| 20260504212236 | 73 | 194 | 3.0 | 11.0 | 0.00 | 0.00 | 0.00 | 58 | 1002.4 |
| 20260504211735 | 72 | 199 | 4.0 | 11.0 | 0.00 | 0.00 | 0.00 | 59 | 1003.1 |
| 20260504211234 | 72 | 211 | 3.0 | 11.0 | 0.00 | 0.00 | 0.00 | 59 | 1003.3 |
| 20260504210733 | 71 | 217 | 5.0 | 11.0 | 0.00 | 0.00 | 0.00 | 60 | 1003.3 |
| 20260504210233 | 71 | 186 | 4.0 | 11.0 | 0.00 | 0.00 | 0.00 | 63 | 1003.2 |
| 20260504205732 | 69 | 194 | 3.0 | 11.0 | 0.00 | 0.00 | 0.00 | 65 | 1003.1 |
| 20260504205232 | 69 | 191 | 4.0 | 11.0 | 0.00 | 0.00 | 0.00 | 67 | 1003.3 |
| 20260504204732 | 68 | 191 | 4.0 | 11.0 | 0.00 | 0.00 | 0.00 | 68 | 1003.5 |